| time (UTC) | temp F | wind direction | speed MPH | gust MPH | rain 1hr in | rain 24hr in | rain mn in | humidity % | barometer mb |
| 20260510162835 | 78 | 201 | 3.0 | 9.0 | 0.00 | 0.72 | 0.00 | 74 | 1017.3 |
| 20260510154817 | 75 | 144 | 1.0 | 10.0 | 0.00 | 1.08 | 0.00 | 78 | 1017.0 |
| 20260510124647 | 68 | 337 | 6.0 | 9.0 | 0.00 | 1.83 | 0.00 | 95 | 1016.3 |
| 20260510100532 | 66 | 272 | 0.0 | 2.0 | 0.00 | 1.83 | 0.00 | 95 | 1013.9 |
| 20260510092513 | 67 | 29 | 1.0 | 4.0 | 0.00 | 1.83 | 0.00 | 94 | 1013.9 |
| 20260510063401 | 67 | 342 | 2.0 | 6.0 | 0.00 | 1.83 | 0.00 | 95 | 1012.9 |
| 20260510055342 | 66 | 280 | 0.0 | 0.0 | 0.00 | 1.83 | 0.00 | 95 | 1013.2 |
| 20260510052325 | 66 | 188 | 1.0 | 2.0 | 0.00 | 1.83 | 0.00 | 96 | 1013.2 |
| 20260510043305 | 66 | 185 | 0.0 | 6.0 | 0.00 | 1.83 | 1.89 | 96 | 1013.6 |
| 20260510035247 | 66 | 243 | 0.0 | 3.0 | 0.00 | 1.83 | 1.89 | 96 | 1014.2 |
| 20260510031229 | 67 | 199 | 0.0 | 0.0 | 0.00 | 1.83 | 1.89 | 96 | 1014.2 |
| 20260510022206 | 67 | 212 | 0.0 | 2.0 | 0.00 | 1.83 | 1.89 | 96 | 1013.6 |
| 20260510013145 | 67 | 212 | 3.0 | 8.0 | 0.00 | 1.83 | 1.89 | 96 | 1013.6 |
| 20260510003118 | 67 | 174 | 1.0 | 4.0 | 0.03 | 1.83 | 1.89 | 96 | 1013.2 |
| 20260509234054 | 67 | 155 | 2.0 | 3.0 | 0.05 | 1.83 | 1.89 | 96 | 1013.6 |
| 20260509223023 | 67 | 191 | 0.0 | 0.0 | 0.01 | 1.85 | 1.83 | 96 | 1013.2 |
| 20260509221013 | 67 | 216 | 0.0 | 3.0 | 0.01 | 1.86 | 1.83 | 96 | 1012.6 |
| 20260509215004 | 67 | 178 | 0.0 | 3.0 | 0.01 | 1.89 | 1.83 | 96 | 1012.6 |
| 20260509212955 | 67 | 184 | 2.0 | 9.0 | 0.00 | 2.03 | 1.82 | 96 | 1012.6 |
| 20260509201921 | 66 | 198 | 1.0 | 1.0 | 0.07 | 3.20 | 1.81 | 96 | 1013.2 |
| 20260509194908 | 66 | 183 | 2.0 | 3.0 | 0.03 | 3.16 | 1.77 | 96 | 1013.2 |
| 20260509190849 | 66 | 213 | 0.0 | 3.0 | 0.07 | 3.13 | 1.74 | 96 | 1013.6 |
| 20260509164736 | 65 | 353 | 5.0 | 11.0 | 0.38 | 2.57 | 1.17 | 95 | 1014.2 |